Weather History for Elefsis, Greece

Change the Weather History Date:

Thursday, March 1, 2012

  Actual Average Record
Temperature  
Mean Temperature 40 °F -  
Max Temperature 44 °F 59 °F 69 °F (2002)
Min Temperature 35 °F 43 °F 32 °F (2009)
Degree Days  
Heating Degree Days 26    
Moisture  
Dew Point 33 °F    
Average Humidity 78    
Maximum Humidity 93    
Minimum Humidity 61    
Precipitation  
Precipitation 0.00 in - - ()
Sea Level Pressure  
Sea Level Pressure 30.06 in    
Wind  
Wind Speed 4 mph ()    
Max Wind Speed 13 mph    
Max Gust Speed -    
Visibility 6.1 miles    
Events Rain    
Averages and records for this station are not official NWS values.
T = Trace of Precipitation, MM = Missing Value Source: Averaged Metar Reports

Daily Weather History Graph

Daily Weather History Graph

Search for Another Location

Airport:

Trip Planner

Search our weather history database for the weather conditions in past years. The results will help you decide how hot, cold, wet, or windy it might be!

Date:

Astronomy

Mar. 01, 2012 Rise Set
Actual Time 6:57 AM EET 6:19 PM EET
Civil Twilight 6:30 AM EET 6:45 PM EET
Nautical Twilight 6:00 AM EET 7:16 PM EET
Astronomical Twilight 5:29 AM EET 7:46 PM EET
Moon 11:28 AM EET (3/1) 1:35 AM EET (3/1)
Length of Visible Light 12h 15m
Length of Day
11h 22m
First Quarter, 54% of the Moon is Illuminated
Mar 1
First Quarter
Mar 8
Full
Mar 15
Last Quarter
Mar 22
New
Mar 30
First Quarter

Hourly Weather History & Observations

Time (EET) Temp. Windchill Dew Point Humidity Pressure Visibility Wind Dir Wind Speed Gust Speed Precip Events Conditions
12:20 AM 41.0 °F - 33.8 °F 76% 29.92 in 6.2 mi Calm Calm - N/A   Mostly Cloudy
12:50 AM 41.0 °F 38.0 °F 35.6 °F 81% 29.92 in 6.2 mi WNW 4.6 mph - N/A   Mostly Cloudy
1:20 AM 41.0 °F 38.0 °F 35.6 °F 81% 29.92 in 6.2 mi WNW 4.6 mph - N/A   Mostly Cloudy
1:50 AM 41.0 °F 37.1 °F 35.6 °F 81% 29.92 in 6.2 mi WNW 5.8 mph - N/A Rain Light Rain
2:20 AM 41.0 °F 37.1 °F 35.6 °F 81% 29.92 in 6.2 mi NW 5.8 mph - N/A Rain Light Rain
2:50 AM 39.2 °F 35.9 °F 35.6 °F 87% 29.92 in 6.2 mi NW 4.6 mph - N/A Rain Light Rain
3:20 AM 39.2 °F 35.9 °F 35.6 °F 87% 29.92 in 6.2 mi WNW 4.6 mph - N/A Rain Light Rain
3:50 AM 39.2 °F 35.9 °F 35.6 °F 87% 29.92 in 6.2 mi NNW 4.6 mph - N/A Rain Light Rain
4:20 AM 39.2 °F 35.9 °F 35.6 °F 87% 29.92 in 6.2 mi WNW 4.6 mph - N/A Rain Light Rain
4:50 AM 39.2 °F - 35.6 °F 87% 29.95 in 6.2 mi Calm Calm - N/A   Mostly Cloudy
5:20 AM 39.2 °F - 35.6 °F 87% 29.95 in 6.2 mi Calm Calm - N/A   Mostly Cloudy
5:50 AM 39.2 °F - 33.8 °F 81% 29.95 in 6.2 mi Variable 2.3 mph - N/A   Mostly Cloudy
6:20 AM 39.2 °F 37.0 °F 35.6 °F 87% 29.95 in 6.2 mi Variable 3.5 mph - N/A   Mostly Cloudy
6:50 AM 39.2 °F 35.9 °F 33.8 °F 81% 29.95 in 6.2 mi NW 4.6 mph - N/A Rain Light Rain
7:20 AM 39.2 °F 34.2 °F 33.8 °F 81% 29.95 in 6.2 mi NNW 6.9 mph - N/A   Drizzle
7:50 AM 39.2 °F 33.0 °F 35.6 °F 87% 29.98 in 6.2 mi NW 9.2 mph - N/A Rain Light Rain
8:20 AM 37.4 °F 32.8 °F 35.6 °F 93% 29.98 in 5.6 mi North 5.8 mph - N/A Rain Light Rain
8:50 AM 37.4 °F - 35.6 °F 93% 30.01 in 5.6 mi Calm Calm - N/A Rain Light Rain
9:20 AM 37.4 °F 33.8 °F 35.6 °F 93% 30.01 in 5.0 mi North 4.6 mph - N/A Rain Light Rain
9:50 AM 37.4 °F 33.8 °F 35.6 °F 93% 30.04 in 5.6 mi NNW 4.6 mph - N/A   Drizzle
10:20 AM 39.2 °F - 35.6 °F 87% 30.04 in 5.6 mi Calm Calm - N/A   Overcast
10:50 AM 41.0 °F - 35.6 °F 81% 30.06 in 6.2 mi Calm Calm - N/A   Mostly Cloudy
11:20 AM 41.0 °F - 35.6 °F 81% 30.06 in 6.2 mi Calm Calm - N/A   Scattered Clouds
11:50 AM 42.8 °F 38.6 °F 32.0 °F 66% 30.06 in 6.2 mi NNE 6.9 mph - N/A   Scattered Clouds
12:20 PM 44.6 °F 40.2 °F 32.0 °F 61% 30.06 in 6.2 mi ENE 8.1 mph - N/A   Scattered Clouds
12:50 PM 44.6 °F 39.2 °F 33.8 °F 66% 30.06 in 6.2 mi North 10.4 mph - N/A   Scattered Clouds
1:20 PM 44.6 °F 38.8 °F 32.0 °F 61% 30.06 in 6.2 mi North 11.5 mph - N/A   Scattered Clouds
1:50 PM 44.6 °F 38.4 °F 33.8 °F 66% 30.09 in 6.2 mi North 12.7 mph - N/A   Mostly Cloudy
2:20 PM 42.8 °F 36.6 °F 33.8 °F 70% 30.09 in 6.2 mi North 11.5 mph - N/A   Scattered Clouds
2:50 PM 41.0 °F 35.2 °F 33.8 °F 76% 30.12 in 6.2 mi NE 9.2 mph - N/A   Scattered Clouds
3:20 PM 42.8 °F 37.5 °F 33.8 °F 70% 30.12 in 6.2 mi North 9.2 mph - N/A   Scattered Clouds
3:50 PM 42.8 °F 37.5 °F 32.0 °F 66% 30.12 in 6.2 mi North 9.2 mph - N/A   Mostly Cloudy
4:20 PM 42.8 °F 37.5 °F 32.0 °F 66% 30.12 in 6.2 mi North 9.2 mph - N/A   Scattered Clouds
4:50 PM 42.8 °F 38.6 °F 32.0 °F 66% 30.15 in 6.2 mi NNW 6.9 mph - N/A   Scattered Clouds
5:20 PM 41.0 °F 35.8 °F 30.2 °F 65% 30.15 in 6.2 mi NNW 8.1 mph - N/A   Partly Cloudy
5:50 PM 41.0 °F 37.1 °F 30.2 °F 65% 30.15 in 6.2 mi NNW 5.8 mph - N/A   Partly Cloudy
6:20 PM 41.0 °F 38.0 °F 30.2 °F 65% 30.15 in 6.2 mi North 4.6 mph - N/A   Partly Cloudy
6:50 PM 39.2 °F - 30.2 °F 70% 30.18 in 6.2 mi Calm Calm - N/A   Partly Cloudy
7:20 PM 39.2 °F - 30.2 °F 70% 30.18 in 6.2 mi Calm Calm - N/A   Partly Cloudy
7:50 PM 39.2 °F - 30.2 °F 70% 30.18 in 6.2 mi Calm Calm - N/A   Partly Cloudy
8:20 PM 37.4 °F - 32.0 °F 81% 30.18 in 6.2 mi Calm Calm - N/A   Partly Cloudy
8:50 PM 37.4 °F - 30.2 °F 75% 30.21 in 6.2 mi Calm Calm - N/A   Partly Cloudy
9:20 PM 35.6 °F 31.7 °F 30.2 °F 81% 30.21 in 6.2 mi NNW 4.6 mph - N/A   Partly Cloudy
9:50 PM 35.6 °F 31.7 °F 32.0 °F 87% 30.21 in 6.2 mi North 4.6 mph - N/A   Partly Cloudy
10:20 PM 37.4 °F 32.1 °F 32.0 °F 81% 30.21 in 6.2 mi North 6.9 mph - N/A   Partly Cloudy
10:50 PM 37.4 °F 31.4 °F 32.0 °F 81% 30.21 in 6.2 mi North 8.1 mph - N/A   Partly Cloudy
11:20 PM 35.6 °F 30.7 °F 32.0 °F 87% 30.21 in 6.2 mi North 5.8 mph - N/A   Partly Cloudy
11:50 PM 35.6 °F 29.9 °F 30.2 °F 81% 30.24 in 6.2 mi NNW 6.9 mph - N/A   Partly Cloudy